Notices

What's New in latest Release from April 7th, 2021:

- Updated Glossary, including Speed of Maximum Gust, and Total Hourly Precipitation

- Updated national and regional climate services offices contacts and prices information

- Addition of station inventory lists for 1981-2010, 1971-2000, and 1961-1990 Normals.

If you haven't already, please take our survey and provide feedback about our website: https://eccc.sondage-survey.ca/f/LanguageSelection.aspx?s=442ca660-fcf1-47c0-95a9-59707d6fd709

Hourly Data Report for August 14, 2004

SHERBROOKE A
QUEBEC

45°26'00.000" N
71°41'00.000" W
241.40 m
7028124
71610
YSC

Download Data

Hourly Data (August 2004)
Hourly Data Report for August 14, 2004
TIME
LST
Temp Definition
°C
Dew Point Definition
°C
Rel Hum Definition
%
Precip. Amount Definition
mm

Wind Dir Definition
10's deg

Wind Spd Definition
km/h
Visibility Definition
km
Stn Press Definition
kPa
Hmdx Definition


Wind Chill Definition


Weather Definition


00:00 18.4 17.6 95   25 7 15.0 98.51      
01:00 18.4 17.4 94   25 11 15.0 98.53      
02:00 18.0 16.7 92   27 7 15.0 98.57      
03:00 17.5 16.3 93   24 9 15.0 98.64      
04:00 17.0 15.5 91   25 9 15.0 98.68      
05:00 16.4 14.8 90   27 11 15.0 98.76      
06:00 15.7 14.1 90   26 13 15.0 98.88      
07:00 15.4 13.9 91   25 11 16.1 98.96     Cloudy
08:00 15.3 13.4 88   25 9 16.1 99.05     Cloudy
09:00 15.9 13.3 85   26 11 16.1 99.09     Cloudy
10:00 16.9 13.1 78   27 15 16.1 99.14     Cloudy
11:00 18.2 13.5 74   24 17 19.3 99.16     Mostly Cloudy
12:00 20.2 14.1 68   28 22 19.3 99.18     Mostly Cloudy
13:00 19.7 12.5 63   28 22 24.1 99.20     Mainly Clear
14:00 20.9 13.8 64   28 15 24.1 99.23     Mostly Cloudy
15:00 20.1 13.1 64   28 11 24.1 99.28     Mostly Cloudy
16:00 21.3 13.3 60   27 17 24.1 99.26     Mostly Cloudy
17:00 19.5 12.8 65   24 9 15.0 99.33      
18:00 19.4 13.7 70   25 4 15.0 99.35      
19:00 17.4 13.2 76   25 7 15.0 99.39      
20:00 16.2 13.4 83   22 6 15.0 99.44      
21:00 15.9 13.3 85   22 4 15.0 99.48      
22:00 13.5 12.6 94     0 15.0 99.49      
23:00 14.0 12.5 91     0 15.0 99.53      

Notes on Data Quality.

Legend

  • E = Estimated
  • M = Missing
  • NA = Not Available*
  • [empty] = Indicates an unobserved value
Date modified: